Tracking 29069 objects as of 18-Jul-2024
HD Live streaming from Space Station
objects crossing your sky now

STARLINK-4677

Track STARLINK-4677 now!
10-day predictions
STARLINK-4677 is classified as:


NORAD ID: 53600
Int'l Code: 2022-104N
Perigee: 546.0 km
Apogee: 547.8 km
Inclination: 53.2 °
Period: 95.4 minutes
Semi major axis: 6917 km
RCS: Unknown
Launch date: August 28, 2022
Source: United States (US)
Launch site: AIR FORCE EASTERN TEST RANGE (AFETR)
Your satellite tracking list
Your tracking list is empty




NASA's NSSDC Master Catalog

Two Line Element Set (TLE):
1 53600U 22104N   24199.98314369  .00002220  00000-0  15750-3 0  9998
2 53600  53.2171  56.7133 0001297  98.2188 261.8951 15.08845391104792
Source of the keplerian elements: AFSPC